Wind_Speed
53 50 47 48 51 53 52 50 49 48 45 43 40 36 33 31 30 29 28 25 24 24 22 21 21 21 23 23 21 20 18 16 14 14 15 13 13 11 9 10 10 10 11 10 9 6 5 5 4 3 4 5 7 12 16 14 12 13 15 16 17 17 17 18 19 21 21 21 21 20 19 19 19 20 20 20 19 19 18 18 17 17 17 17 17 17
53 48 48 53 57 55 53 52 51 51 48 45 43 40 37 35 34 32 31 29 27 26 25 23 22 22 24 24 24 23 19 16 16 16 16 15 14 11 9 9 10 10 10 10 8 6 5 4 4 3 3 6 7 11 16 16 13 12 15 17 18 18 17 18 19 20 21 21 20 20 19 18 18 18 18 18 17 17 16 16 16 16 16 16 16 16
52 49 54 59 58 56 55 54 53 53 51 48 47 44 41 40 38 35 34 32 30 30 29 27 25 24 25 25 26 26 21 18 18 18 17 16 15 12 9 9 9 9 9 10 8 5 5 5 3 2 2 5 8 12 16 18 16 14 15 18 19 19 18 18 18 19 20 20 20 20 19 18 17 16 16 16 15 15 15 14 14 14 14 14 15 15
53 56 62 61 59 58 57 56 56 56 53 50 49 48 46 46 43 40 39 36 34 35 33 31 28 27 26 24 27 29 24 20 20 19 18 17 16 13 10 10 9 9 9 9 9 6 5 5 4 2 1 4 8 12 15 18 19 17 15 17 19 20 19 18 19 19 19 19 19 19 18 18 16 15 15 14 14 14 14 13 13 12 12 13 13 13
59 64 64 60 61 61 59 58 57 56 54 52 51 51 51 51 49 47 44 40 39 38 35 33 30 27 25 24 28 32 28 23 21 21 20 18 16 14 12 11 10 10 9 9 10 8 6 5 5 4 2 4 7 11 15 17 18 18 16 16 18 20 21 20 19 19 19 19 19 18 18 17 16 15 14 14 14 14 13 12 11 11 11 11 11 11
64 67 64 61 62 61 59 58 57 57 56 55 53 53 55 55 55 52 46 43 42 41 39 37 33 30 28 27 30 33 30 26 23 23 22 19 17 16 13 13 12 11 10 10 10 10 7 6 6 6 5 5 7 10 15 18 19 19 18 17 18 20 22 22 21 20 20 19 19 19 18 17 16 15 14 13 13 13 12 11 10 10 9 9 9 9
67 68 65 63 63 61 60 59 58 59 58 56 56 58 60 58 58 55 49 46 45 44 44 41 36 34 31 30 32 33 33 30 25 24 24 21 19 17 15 15 15 13 12 11 11 11 9 7 6 6 7 7 8 10 15 19 21 21 21 20 19 20 21 22 22 22 21 20 20 20 18 17 16 15 14 13 12 12 11 10 9 9 8 8 7 7
68 69 65 64 63 62 60 59 60 61 59 59 62 63 62 59 60 57 52 49 47 49 48 42 39 37 33 31 33 34 34 32 27 26 27 24 22 18 17 17 17 15 14 13 12 11 11 8 7 7 8 9 9 10 14 19 22 22 22 21 20 20 21 22 23 22 22 21 20 19 18 17 16 15 14 13 12 11 10 10 9 8 7 6 6 6
71 71 67 68 67 64 62 62 65 63 62 65 67 65 63 62 62 60 55 52 51 52 48 43 41 39 34 33 34 33 33 32 31 31 31 28 24 20 18 19 19 17 16 16 13 12 12 10 9 9 10 10 11 12 13 17 21 23 22 22 21 21 21 22 23 23 23 22 21 19 18 18 17 16 15 13 12 11 10 10 9 8 7 7 6 6
76 74 72 73 69 65 66 69 69 65 64 69 70 66 64 64 64 62 56 54 54 51 46 44 43 39 35 35 34 31 30 33 36 38 35 30 26 22 20 20 20 19 18 17 16 13 13 13 11 11 11 12 12 14 15 17 21 24 24 23 23 22 22 22 23 23 23 22 21 20 19 18 18 16 15 13 12 12 11 11 10 9 8 8 7 6
78 77 77 75 70 68 70 73 71 67 69 73 71 67 66 65 65 63 57 56 55 47 44 45 43 40 37 35 32 30 33 37 40 41 38 32 27 23 21 21 21 20 19 18 18 16 15 15 14 13 13 13 14 15 16 17 21 24 25 24 24 23 23 23 23 24 24 23 21 20 20 19 18 16 15 14 13 12 12 11 11 10 10 9 9 8
81 81 79 75 72 72 73 74 72 70 72 74 71 69 68 66 67 64 59 57 52 43 43 46 43 40 36 33 33 34 37 40 40 41 40 35 29 24 22 21 22 22 21 20 20 19 17 16 16 15 14 14 15 16 17 18 21 23 24 24 24 24 25 24 24 24 24 23 22 22 21 20 18 17 16 15 14 13 13 12 11 11 11 11 10 9
83 83 80 77 76 75 75 75 73 72 73 72 71 70 68 67 66 63 58 55 49 42 44 47 44 39 35 35 36 37 41 43 42 41 40 37 32 26 23 22 22 22 22 22 22 21 20 18 18 18 17 16 16 18 19 19 21 23 25 25 25 26 26 25 25 24 24 24 23 22 21 20 18 17 16 15 14 14 13 13 12 13 12 12 11 10
86 85 83 79 78 76 75 75 73 71 71 71 70 69 67 66 64 60 56 53 48 45 47 49 46 39 35 37 40 42 45 45 42 40 40 39 35 29 26 23 22 22 23 24 23 23 23 21 20 20 20 18 18 19 21 21 22 23 25 26 26 27 27 27 26 25 24 24 24 23 22 20 19 17 17 15 15 15 15 14 14 14 13 13 12 12
89 87 83 78 76 76 75 74 72 72 72 72 71 70 68 65 62 59 58 55 51 50 51 51 47 40 39 43 47 48 48 45 42 41 40 40 37 32 28 25 24 24 25 25 25 25 25 24 22 22 22 22 20 20 22 23 23 24 26 26 27 28 29 28 27 25 25 24 24 24 23 22 20 18 17 16 16 16 16 15 15 15 14 14 14 13
91 87 84 81 80 79 76 75 75 75 74 73 73 72 67 63 62 63 63 61 57 56 55 52 47 44 45 50 53 50 47 44 42 42 40 40 38 35 30 28 27 27 27 28 28 28 27 26 25 25 25 25 23 22 23 25 25 26 26 26 26 28 30 29 28 27 26 25 25 25 25 23 21 20 18 17 17 17 17 16 16 15 15 15 15 14
92 88 87 87 85 82 78 78 79 78 75 75 75 69 63 65 68 68 66 63 61 58 55 52 49 47 48 52 53 49 45 44 43 42 41 41 39 36 33 31 30 29 29 29 30 30 30 28 28 27 27 28 27 24 24 26 27 27 27 26 27 29 31 31 30 29 28 27 27 27 26 24 23 21 19 19 19 19 18 18 17 17 17 16 16 15
94 90 90 89 85 82 82 83 84 82 79 79 75 69 69 74 74 69 67 65 61 57 54 53 52 49 48 51 53 49 46 45 43 43 43 41 38 38 37 34 32 32 31 31 32 32 31 30 31 31 30 29 29 27 26 27 28 29 29 28 28 30 32 33 32 31 30 30 29 29 28 27 25 23 21 21 22 21 20 20 19 19 18 17 17 17
96 93 94 91 86 85 87 88 88 86 83 80 75 74 78 78 73 68 66 63 59 56 55 56 53 50 49 52 54 51 48 46 45 45 44 41 39 40 40 38 36 35 34 34 34 34 34 33 34 34 32 31 31 30 29 29 30 31 31 31 31 31 32 33 32 32 32 32 31 31 30 29 27 25 24 24 24 23 22 22 22 21 19 19 19 19
97 95 97 96 91 90 92 92 89 85 82 79 78 79 80 77 73 71 68 65 62 59 58 58 56 51 50 54 57 54 50 49 48 46 45 43 42 42 43 41 39 38 38 37 36 36 37 37 37 36 35 33 33 33 32 32 33 33 33 33 33 32 33 35 35 35 35 34 33 32 32 30 28 27 26 25 25 24 24 24 23 22 20 20 21 21
98 96 99 99 95 94 95 92 86 82 81 80 79 79 78 75 73 73 70 68 66 63 61 61 58 53 53 58 61 58 54 52 49 47 46 45 43 43 44 45 43 41 40 39 38 39 40 39 38 38 37 35 36 36 35 35 35 35 35 35 34 33 34 36 38 37 36 35 34 33 33 31 30 28 27 27 26 26 26 26 25 23 22 22 22 22
98 97 99 101 99 97 97 92 86 85 84 82 80 80 78 76 75 75 71 68 66 62 61 61 57 55 59 63 64 60 56 52 50 48 47 45 44 44 46 48 46 44 42 40 40 41 41 40 39 39 38 38 39 40 38 37 37 37 37 36 36 36 36 37 38 38 36 35 34 34 33 32 31 29 28 28 28 28 29 28 26 25 24 24 24 24
99 97 99 101 100 98 97 93 89 88 86 85 83 82 81 80 78 76 69 66 65 62 61 59 56 58 64 65 63 60 55 52 50 49 47 46 45 46 48 49 48 46 44 42 42 42 41 41 40 39 39 40 42 42 40 38 39 38 37 36 37 38 38 38 39 39 37 36 35 35 34 33 32 31 30 30 30 31 31 29 28 27 26 26 26 26
101 98 99 101 100 98 98 96 93 91 89 88 86 85 85 82 78 74 69 69 69 66 63 60 57 62 64 62 61 59 54 53 52 50 48 46 47 48 49 49 49 47 46 44 43 42 41 41 40 38 39 42 44 43 42 41 40 39 38 37 37 38 39 39 39 39 39 39 37 36 36 36 35 34 33 33 32 33 32 31 30 29 29 28 28 27
103 100 99 102 102 101 101 101 99 97 95 94 91 88 86 81 78 76 74 75 74 69 67 63 63 67 66 62 62 59 54 53 52 49 48 48 49 50 50 50 50 48 46 44 43 42 42 41 39 39 41 44 45 45 44 43 40 40 39 38 37 38 40 41 41 41 41 40 39 38 38 38 38 37 36 35 34 34 34 33 32 31 31 30 29 29
105 102 101 103 105 103 103 102 101 100 99 96 92 88 85 82 80 78 78 77 73 69 67 64 66 70 68 64 64 60 56 54 51 49 48 49 50 50 50 50 49 47 46 44 43 43 42 41 40 41 43 45 45 45 45 44 42 41 40 39 37 37 40 42 43 42 42 42 41 41 41 41 40 40 38 37 36 36 36 35 35 34 33 32 32 31
105 103 102 104 105 103 102 100 98 98 97 94 90 87 85 84 82 80 79 75 70 69 67 64 68 72 68 65 64 61 58 56 53 51 51 51 51 50 50 50 49 48 47 45 44 44 43 41 40 42 44 46 46 46 46 45 44 42 41 40 39 38 40 43 44 44 43 43 44 43 42 42 42 40 39 38 38 38 38 38 37 36 35 34 34 33
103 103 103 104 105 103 101 99 96 96 94 92 90 88 86 85 84 82 78 73 70 70 66 65 71 73 67 65 64 62 59 57 55 54 53 52 52 51 51 50 50 49 47 45 44 43 42 41 41 43 45 45 45 46 46 46 46 44 43 42 40 40 40 42 44 46 45 45 45 45 44 43 42 40 40 40 40 41 41 40 39 38 37 36 35 34
102 102 102 104 105 104 101 99 97 95 93 91 90 89 88 87 86 82 77 73 72 70 67 69 74 73 68 66 65 63 60 57 56 56 54 52 52 51 50 50 49 48 47 46 45 43 42 41 42 43 44 44 45 46 46 48 48 46 45 43 42 42 41 41 43 46 47 47 47 46 44 43 42 41 41 42 43 44 43 42 40 39 38 38 37 36
102 101 101 102 104 104 102 100 98 96 94 92 91 90 89 88 84 80 77 75 74 71 71 74 76 74 71 68 67 64 60 58 57 56 52 50 50 50 49 49 48 47 46 46 45 43 42 42 42 43 43 43 44 45 47 49 49 49 48 46 45 44 42 42 42 44 46 48 48 47 46 44 43 43 43 44 45 45 44 43 42 41 41 39 38 38
101 100 99 100 102 103 104 103 100 97 96 95 93 91 88 85 82 79 78 78 76 74 75 76 76 75 73 70 67 64 60 59 58 55 52 50 50 50 49 49 48 47 46 45 45 43 42 41 41 42 42 41 43 45 48 49 50 50 49 48 46 44 43 43 42 42 44 45 46 47 47 46 46 45 45 45 46 45 45 44 44 43 42 41 40 39
100 99 98 98 101 103 104 104 102 99 98 97 94 90 87 85 83 82 81 79 78 76 76 75 74 75 74 70 67 65 61 60 58 56 53 51 50 51 51 50 49 48 46 45 44 43 41 41 41 41 41 41 42 46 48 50 51 50 49 49 48 46 45 44 43 42 41 41 42 45 47 47 47 47 47 47 47 46 45 44 43 43 42 41 40 39
100 98 97 98 100 102 103 103 103 102 100 98 94 90 88 88 87 85 82 80 78 77 76 74 73 75 74 70 67 64 61 59 57 56 54 51 51 52 53 52 51 49 46 44 44 43 41 41 41 41 41 41 43 46 49 51 52 52 51 50 49 47 46 45 44 43 40 39 40 43 45 46 46 47 47 47 47 47 46 45 44 43 41 40 38 37
99 98 96 97 99 100 101 102 103 103 102 99 94 90 90 91 89 87 84 81 78 77 75 74 75 76 73 69 65 61 59 57 56 56 55 53 52 53 53 53 52 49 46 44 43 42 41 41 41 41 42 42 44 47 49 51 52 52 52 50 48 47 46 45 44 43 40 38 38 40 41 42 43 44 45 46 47 47 47 46 45 43 41 39 38 37
99 98 96 97 99 99 100 101 101 102 102 99 94 91 92 92 90 87 84 81 78 77 76 77 78 77 73 68 63 60 57 56 55 57 57 54 53 53 54 54 53 49 46 44 42 41 42 41 41 41 42 43 44 45 47 50 52 52 51 50 49 48 47 45 44 42 40 37 36 37 37 39 41 42 43 44 45 46 47 47 46 45 43 41 39 38
99 98 97 98 98 99 100 100 99 99 100 97 94 92 93 92 89 86 83 81 80 79 79 80 80 78 73 68 63 60 57 56 56 58 58 55 54 55 55 55 53 50 46 44 42 41 42 42 42 42 42 44 44 44 46 49 52 52 52 52 51 49 48 46 44 43 41 39 37 36 36 37 38 39 40 42 43 44 46 46 46 45 44 42 41 39
99 98 98 98 98 98 99 98 96 97 97 96 94 94 95 93 90 88 85 84 82 81 80 81 80 77 73 68 63 59 57 57 58 59 59 56 56 55 55 54 53 50 47 44 42 41 42 42 42 42 42 44 45 45 46 48 51 53 53 53 52 51 49 48 46 45 43 41 39 37 36 35 35 36 37 39 41 42 44 44 45 45 44 44 43 41
98 98 98 98 97 97 97 96 95 94 94 94 93 94 96 95 91 88 86 84 83 82 81 80 79 76 72 68 63 59 58 59 60 60 59 57 56 56 55 55 53 51 48 45 43 42 42 42 41 41 42 43 45 46 46 47 50 53 54 55 54 53 52 50 48 47 44 43 41 39 37 35 33 34 35 37 38 40 41 43 43 44 45 45 44 43
99 98 98 98 97 96 96 95 94 93 94 94 92 91 93 94 91 87 85 84 84 83 82 80 78 75 72 69 64 60 60 61 60 59 59 58 57 56 56 55 53 51 49 47 45 43 42 42 41 41 41 41 43 45 45 46 49 52 55 56 55 54 53 52 50 48 46 43 41 40 38 35 33 32 33 35 37 39 40 41 42 43 45 46 46 45
99 98 97 98 97 96 95 94 93 93 93 93 92 89 89 91 90 88 87 86 85 84 82 80 77 74 71 68 64 62 62 62 61 59 60 59 58 57 57 56 54 52 50 48 46 45 43 43 42 41 40 40 40 42 43 44 46 49 52 54 55 54 54 53 51 48 45 43 41 40 38 36 34 34 33 34 36 37 39 40 41 42 44 45 46 46
99 98 98 99 98 96 95 94 93 92 91 91 90 89 88 89 90 90 90 89 86 84 83 80 76 73 70 67 64 63 63 63 61 60 60 60 60 59 58 57 55 53 51 50 48 47 46 45 44 42 41 40 39 39 40 41 43 45 48 51 53 55 55 54 52 49 46 44 43 41 40 38 37 36 36 35 35 36 37 38 40 41 42 44 46 47
99 99 99 100 99 97 96 94 92 91 90 89 88 87 86 87 89 91 91 90 88 86 84 81 77 73 70 68 65 64 63 63 62 60 60 61 61 60 58 57 55 53 52 51 49 48 48 46 45 44 43 41 39 38 37 39 40 42 45 47 51 53 55 55 53 51 49 47 45 44 42 41 40 39 38 37 36 36 36 36 37 39 41 43 44 46
100 101 101 101 101 99 96 94 92 90 89 87 84 82 81 83 86 89 90 89 89 88 86 82 78 74 71 69 67 65 64 64 63 61 60 61 62 61 60 58 57 54 53 52 51 49 49 48 46 45 44 42 40 38 36 37 38 39 42 44 48 51 53 54 54 53 52 50 48 47 45 44 44 42 41 39 38 37 37 36 36 37 39 41 43 44
100 102 103 103 103 101 98 95 92 89 88 86 81 76 74 77 80 85 88 89 89 88 87 83 80 76 73 71 69 67 66 66 64 63 62 63 63 63 61 59 58 56 54 53 52 51 50 49 47 45 44 43 41 38 37 37 37 38 39 42 45 48 51 54 55 55 54 53 51 50 49 48 47 46 45 43 41 40 39 39 38 38 38 39 41 42
100 102 103 104 103 101 98 95 93 90 87 86 82 74 69 70 72 75 80 85 88 87 86 84 81 78 75 73 72 70 68 67 67 65 64 64 64 63 62 61 59 58 56 54 53 52 50 49 48 46 45 43 41 39 37 37 37 38 39 40 42 45 48 51 54 56 56 56 54 53 51 51 50 49 48 47 45 44 43 41 40 40 40 39 40 41
99 101 103 104 103 100 97 94 93 91 88 85 82 75 68 66 63 60 63 74 84 87 85 83 81 79 77 75 74 73 71 69 68 67 65 65 65 64 63 62 61 60 58 56 54 53 52 51 49 48 46 44 42 40 38 37 36 37 38 39 40 42 44 47 50 54 56 57 56 55 54 53 52 52 51 50 48 47 45 43 42 42 42 42 42 42
98 100 102 103 103 100 98 95 93 92 89 85 81 76 71 66 60 54 53 60 70 79 82 82 81 80 78 76 75 74 73 71 69 68 67 66 66 65 64 63 62 61 59 57 55 53 53 52 50 49 48 46 44 41 39 37 36 36 36 37 38 39 41 43 46 50 53 56 57 57 57 56 55 54 52 51 51 50 48 47 46 45 45 45 44 44
96 99 100 102 102 100 98 96 94 92 90 86 81 76 71 66 62 57 55 55 57 65 73 79 81 79 78 78 76 74 73 72 70 69 68 67 67 67 65 64 63 62 60 58 56 55 54 53 52 50 50 48 46 44 42 39 38 36 35 35 36 37 38 40 42 45 48 51 54 57 58 58 57 55 54 54 53 52 51 49 49 48 48 47 47 46
94 97 99 101 102 100 98 97 95 93 90 88 83 77 71 67 65 62 59 57 55 56 61 69 76 78 77 77 77 74 73 72 72 70 68 68 68 68 67 65 64 64 63 61 59 57 56 55 54 52 51 50 49 47 45 43 41 39 37 35 35 35 36 37 38 40 43 46 49 52 55 57 57 57 57 56 56 54 53 52 51 51 51 50 49 49
91 95 98 99 100 100 98 98 97 94 91 89 87 82 75 71 68 65 63 61 58 55 55 58 64 71 74 74 75 75 74 73 73 73 71 69 69 69 68 66 65 65 65 64 61 59 58 57 55 53 52 52 51 50 48 47 45 43 41 38 36 35 35 35 36 37 39 41 44 47 50 53 55 57 57 58 57 56 55 54 54 54 53 52 52 51
88 93 96 98 99 100 99 98 97 96 93 91 89 86 81 76 69 64 64 66 64 59 55 54 56 64 68 67 67 71 75 74 74 74 74 72 70 70 69 67 65 65 66 65 64 61 60 58 57 55 54 54 53 52 51 50 48 47 45 42 40 38 36 35 35 35 36 37 39 42 45 48 51 54 56 57 57 56 56 56 56 55 55 55 54 53
Wind_Direction
231 231 232 232 231 229 228 227 229 234 235 235 235 230 226 224 221 220 219 216 218 220 216 211 212 225 237 239 239 238 239 247 255 261 267 272 277 286 300 309 313 316 318 328 342 353 6 21 37 87 142 162 183 170 155 157 170 165 158 157 158 162 159 153 149 146 144 143 141 140 139 137 135 133 132 129 126 124 120 117 112 107 103 101 99 95
231 232 233 232 231 230 230 229 230 234 235 236 237 235 231 229 226 224 223 219 218 221 219 216 215 224 237 243 246 244 241 245 251 256 263 270 275 283 295 301 306 309 311 321 334 344 340 355 29 55 142 164 178 179 163 156 170 177 168 165 163 165 165 160 156 153 150 148 146 144 143 142 140 138 136 133 130 128 125 121 115 110 106 103 101 99
230 232 233 231 231 231 230 230 229 232 234 234 236 237 235 234 230 227 227 224 221 223 221 218 216 221 233 242 249 250 245 246 251 255 261 267 273 280 286 290 295 299 304 313 322 328 321 321 348 38 128 168 175 183 175 163 169 184 181 174 168 167 169 167 163 160 157 154 151 149 149 148 146 145 142 140 137 134 131 127 122 116 111 106 104 102
229 231 232 231 231 231 230 230 229 231 232 232 235 236 236 235 232 229 228 226 225 226 225 222 219 221 230 240 250 253 249 247 252 257 260 264 271 275 277 280 284 288 296 303 307 311 308 304 307 328 147 178 180 185 188 176 171 180 188 183 176 171 171 173 170 167 164 161 157 155 154 154 153 153 152 149 146 143 140 135 130 124 118 113 109 106
229 232 232 231 231 231 231 230 230 231 231 231 232 234 234 234 233 230 228 228 228 230 229 228 224 223 228 236 247 253 252 248 252 257 259 262 267 270 271 274 276 278 284 291 295 301 299 293 289 292 250 196 191 187 190 188 178 177 188 193 186 180 176 177 177 173 170 167 163 161 159 159 158 157 157 155 153 152 149 145 140 135 129 124 117 111
232 234 233 231 232 232 232 232 232 232 232 230 230 232 233 234 233 231 228 229 231 232 232 230 227 224 226 231 241 250 253 250 250 256 259 260 262 265 266 268 270 270 273 276 283 290 293 286 278 279 270 230 209 195 191 193 188 181 187 196 195 191 184 180 180 178 177 175 171 169 168 166 165 163 162 160 160 160 160 156 152 147 142 135 127 119
233 235 233 231 232 233 233 232 233 233 232 231 230 230 231 233 235 234 230 229 231 233 234 232 229 227 226 230 239 248 253 253 252 255 259 258 256 259 261 263 264 265 266 267 272 280 285 284 274 267 267 253 229 210 198 196 196 191 189 193 198 199 194 187 185 184 183 182 180 177 174 171 170 169 170 170 170 172 172 169 167 164 158 150 140 130
235 236 234 233 233 233 233 233 233 232 231 231 230 229 231 232 235 235 231 229 230 232 235 234 232 231 228 229 236 245 252 256 255 253 254 253 251 253 256 259 262 262 263 263 265 271 277 279 272 262 260 257 244 227 210 203 203 201 195 193 197 202 202 196 191 190 189 189 188 185 180 177 178 180 180 180 180 183 186 186 184 182 178 171 160 149
233 234 233 233 231 231 231 231 231 230 230 231 231 230 231 232 233 235 232 230 230 233 236 236 235 234 230 230 236 242 251 257 256 251 248 248 250 250 251 255 260 261 262 263 262 264 270 274 271 264 260 256 247 235 221 211 209 209 203 197 199 204 206 204 199 196 195 194 193 191 188 187 188 190 190 190 190 193 198 201 201 200 197 193 188 177
230 231 231 231 230 229 229 230 230 229 230 232 233 232 232 233 234 235 234 232 232 233 235 236 237 236 232 233 237 241 246 250 251 250 248 247 248 249 250 254 259 260 261 263 263 260 264 269 269 264 260 255 244 235 226 215 212 215 211 203 201 205 209 209 206 203 201 199 198 197 197 198 199 198 198 199 201 203 208 212 213 212 212 210 208 200
230 230 230 230 229 229 229 230 230 228 229 232 233 232 233 234 235 236 234 234 235 234 234 236 237 236 234 236 238 238 239 242 247 252 252 249 247 248 252 255 259 261 260 262 263 261 259 264 266 264 260 256 246 237 232 221 214 216 218 212 205 206 210 212 211 209 207 204 202 201 203 206 207 206 206 206 210 214 218 220 221 221 220 220 218 211
231 231 231 230 229 229 229 230 230 229 231 233 234 234 234 234 236 236 235 236 236 234 234 236 236 236 237 237 236 235 237 241 246 252 255 254 250 249 251 253 257 261 261 260 261 262 259 258 261 263 261 257 249 239 236 230 219 216 221 221 213 210 213 214 214 214 213 209 206 205 208 211 213 213 211 211 215 221 227 229 227 227 227 226 225 220
232 231 231 229 229 229 230 231 230 230 232 234 235 235 236 236 237 237 237 237 236 231 232 234 234 233 235 235 234 235 238 240 243 249 255 258 256 252 249 250 254 258 260 260 260 261 259 256 256 258 258 255 249 241 237 234 226 217 218 221 219 216 216 218 218 217 217 215 212 211 212 215 217 217 217 216 218 224 232 235 234 233 233 232 231 228
231 231 230 229 229 230 230 231 232 232 233 235 236 237 237 238 239 240 239 239 236 232 232 233 230 228 229 232 233 233 236 239 243 248 253 257 258 254 250 250 251 252 257 260 260 259 257 255 253 255 255 253 248 242 237 235 231 222 217 219 220 220 220 221 221 221 221 220 218 217 216 216 217 219 220 220 220 225 231 234 235 235 235 236 235 233
230 231 231 230 231 231 231 232 232 232 232 233 234 235 235 237 238 238 238 236 233 231 231 231 228 226 227 232 232 232 236 240 243 247 251 255 258 257 253 251 249 248 250 254 257 257 256 255 252 251 253 251 246 242 239 236 233 226 220 218 219 221 222 224 223 223 223 224 223 221 220 217 217 218 220 221 222 224 228 231 233 234 235 237 238 236
229 230 231 229 229 230 230 231 232 232 231 232 233 234 235 236 237 236 235 234 231 230 231 230 228 226 228 233 236 236 238 241 244 246 249 253 257 258 256 252 249 248 248 250 252 253 253 253 251 248 249 250 245 239 238 237 233 229 224 219 218 221 224 226 226 224 225 225 225 225 224 220 217 218 219 220 222 224 226 228 230 232 234 236 239 239
227 228 230 229 228 228 228 228 230 231 231 232 233 234 235 236 235 234 234 234 232 232 233 233 230 228 231 236 240 240 240 242 245 247 249 251 255 258 257 254 252 251 250 250 250 251 250 249 248 246 245 247 245 239 235 235 233 231 227 222 220 222 224 225 225 224 224 225 226 226 225 222 218 218 217 217 220 223 224 224 226 229 233 236 239 242
226 226 228 229 229 230 229 228 229 228 228 230 230 230 231 233 233 234 234 235 233 233 234 235 232 230 233 239 242 242 242 243 245 247 249 251 254 255 255 254 253 252 251 250 250 250 249 246 245 243 241 242 244 240 233 232 231 230 227 222 220 221 225 227 226 224 224 224 225 226 227 225 221 218 215 214 217 221 222 222 224 227 231 236 239 244
226 225 227 228 227 229 230 229 229 228 227 228 228 228 230 232 233 234 235 236 236 235 235 236 234 231 234 240 242 242 242 243 244 246 248 249 250 252 253 254 253 253 252 250 250 250 247 244 242 241 239 238 240 238 233 230 229 229 228 225 221 220 225 230 230 228 226 226 226 227 229 227 223 219 215 215 217 220 221 222 224 227 230 235 239 244
224 224 226 227 225 226 229 229 230 230 230 229 229 230 231 232 233 233 233 233 233 232 232 234 234 231 232 238 240 240 240 241 243 244 246 246 248 250 252 253 253 252 251 251 250 249 247 243 241 240 237 235 235 236 232 229 228 228 228 228 224 220 221 227 230 229 227 227 227 228 230 229 226 223 219 217 217 219 221 224 227 229 230 234 240 245
224 222 225 227 225 226 228 228 229 231 232 232 232 233 234 234 235 235 234 234 233 231 231 233 233 231 231 235 238 238 238 240 242 243 244 246 247 250 252 252 252 252 252 251 250 249 247 245 241 238 236 234 233 233 231 228 227 227 227 228 227 223 219 223 229 230 229 228 228 229 232 232 230 228 224 221 219 219 222 226 229 231 232 236 242 247
223 222 223 226 225 226 227 228 227 228 230 230 231 232 234 234 235 235 235 236 237 236 235 236 235 232 232 234 237 238 238 240 242 243 245 246 247 249 251 252 252 252 252 251 250 249 249 247 243 238 236 233 232 231 230 228 227 227 227 226 227 225 221 221 226 231 232 232 231 232 233 235 233 230 226 222 220 221 224 228 230 232 234 238 243 248
223 221 223 225 225 225 226 226 225 227 228 229 229 230 231 231 232 233 233 235 236 236 236 237 236 235 235 236 239 240 239 240 240 241 243 245 246 248 251 253 254 254 253 251 250 250 249 248 245 240 236 233 233 232 230 228 227 227 228 227 226 226 224 222 223 229 232 233 232 232 233 235 234 231 227 224 223 225 228 230 231 233 235 239 244 249
222 221 222 224 225 224 225 225 224 224 226 228 228 229 231 231 231 232 231 231 232 231 231 232 232 235 236 237 239 240 239 239 239 240 242 244 247 249 251 253 255 255 255 254 251 250 248 247 245 242 238 234 233 232 230 228 227 227 228 227 226 226 225 223 222 225 230 232 232 231 231 232 233 232 229 227 227 228 231 232 233 235 237 241 245 251
221 220 221 223 224 223 223 223 223 222 223 225 226 227 229 230 231 231 231 231 231 230 230 229 230 232 233 233 236 237 237 238 239 240 241 243 245 248 250 252 254 254 255 254 253 250 247 245 242 239 237 235 233 232 231 230 228 228 228 228 228 227 226 224 221 222 226 229 231 231 231 231 232 233 232 231 231 232 233 234 235 237 239 243 247 251
220 219 220 222 224 224 223 223 223 224 224 224 224 226 227 228 229 230 231 232 233 232 232 232 233 235 235 234 235 235 235 235 237 238 239 241 243 245 248 250 252 253 253 252 252 250 248 244 239 236 235 235 233 232 232 231 229 228 228 229 229 228 227 226 223 221 223 226 229 230 231 231 233 234 235 234 234 234 235 236 237 238 241 244 247 251
219 218 218 221 224 225 225 225 225 226 226 225 224 225 227 228 229 230 231 232 233 234 234 233 235 237 237 237 238 237 236 236 235 236 237 239 241 243 246 249 250 251 251 250 249 249 248 245 240 236 234 234 233 231 231 231 230 228 228 228 228 228 228 227 225 223 222 224 227 229 230 231 233 235 236 236 236 237 238 239 239 241 243 245 248 252
218 217 217 220 223 224 225 225 225 226 226 225 225 225 226 227 228 229 230 232 233 234 234 234 236 238 237 237 238 238 238 237 237 237 237 239 240 242 245 247 248 249 249 247 246 247 247 246 242 238 235 234 233 231 230 231 230 229 228 228 228 229 229 228 227 225 224 224 226 227 229 230 233 235 237 237 237 238 239 240 242 244 246 249 252 256
217 216 216 218 221 223 224 225 225 225 225 225 224 224 225 226 227 228 228 230 232 233 232 233 236 237 236 236 237 237 237 237 238 239 239 241 243 244 245 246 246 246 246 245 244 244 244 243 242 240 238 234 233 232 230 230 230 229 227 227 228 229 230 230 229 228 227 226 226 228 228 229 231 233 236 237 237 238 240 242 243 246 248 251 254 257
216 215 214 216 219 221 222 223 224 224 224 224 224 224 224 225 226 226 227 227 229 230 230 231 233 235 235 234 236 237 237 237 238 239 240 242 244 245 246 245 245 244 244 244 243 243 242 241 240 240 238 234 232 232 230 229 229 228 227 227 228 230 230 231 231 231 230 229 229 230 230 230 230 231 233 236 237 238 240 242 244 246 248 251 253 256
215 214 213 214 217 220 221 222 222 222 223 223 223 223 224 224 224 225 225 226 226 226 228 231 233 235 235 235 236 237 237 237 239 239 239 240 243 245 245 244 244 243 242 243 244 244 243 242 240 240 238 235 232 232 231 230 229 228 228 228 229 230 231 232 232 233 233 233 233 233 233 233 232 231 231 233 235 237 239 241 243 246 248 250 252 255
214 213 212 213 215 218 220 221 221 221 221 222 223 222 222 223 223 223 223 224 224 225 227 229 232 235 236 236 236 237 237 238 239 240 240 239 241 243 243 243 242 241 241 242 243 243 243 243 241 240 238 234 231 231 232 231 231 230 229 229 229 229 230 231 232 233 235 236 237 237 237 236 236 234 233 233 233 235 237 239 242 245 247 249 252 254
213 212 211 211 214 216 218 220 221 221 221 221 221 221 221 222 222 222 222 223 224 225 226 228 230 233 235 234 235 236 237 238 239 240 240 239 238 240 242 242 241 241 241 241 242 243 242 242 242 240 238 234 230 229 230 231 231 231 230 229 229 230 230 231 232 233 234 236 238 239 239 239 239 239 238 237 236 235 235 237 240 243 246 249 251 253
211 211 210 210 213 215 217 219 220 220 220 220 220 219 220 221 222 221 221 222 223 224 226 227 228 231 232 232 233 234 235 237 238 239 239 237 237 238 240 241 241 241 241 241 242 243 243 242 242 241 239 236 231 229 229 230 230 231 231 230 230 230 230 231 232 233 234 236 238 240 241 241 242 243 243 242 240 238 236 236 238 240 243 247 250 251
209 210 209 210 212 213 215 217 218 219 220 220 219 219 220 221 222 222 222 222 222 224 225 226 228 229 230 230 230 231 233 234 236 237 237 235 235 236 238 240 242 241 241 241 241 242 242 241 241 240 238 236 234 231 230 230 231 231 231 231 230 230 231 231 231 231 233 235 238 240 241 242 243 244 245 245 244 242 240 238 238 239 241 244 248 250
207 208 208 210 211 212 214 216 217 219 220 219 218 218 219 221 221 221 221 221 222 223 224 226 228 229 229 228 228 228 230 231 233 235 235 234 233 234 236 239 241 242 241 241 240 240 241 241 240 239 238 236 234 232 230 230 231 231 231 231 231 231 231 231 231 231 232 234 237 240 241 241 242 243 245 246 246 244 243 242 240 240 240 243 245 248
205 207 208 209 210 211 213 214 215 217 219 218 217 217 219 220 219 219 219 220 221 223 224 226 228 229 229 229 228 228 228 229 231 233 234 233 233 234 236 239 241 242 242 241 240 239 239 240 239 239 238 236 235 233 231 230 230 230 230 231 232 232 232 231 231 231 231 233 235 237 239 240 242 243 244 245 246 246 245 245 244 243 242 242 244 246
203 205 206 208 210 210 212 213 214 216 217 218 217 217 218 220 219 219 218 219 220 222 224 225 227 229 229 229 228 228 228 229 230 232 234 234 233 235 237 239 241 242 241 240 238 237 236 237 237 237 236 236 235 234 232 230 230 230 230 230 231 231 232 231 231 231 231 232 234 236 237 239 241 244 245 246 247 247 247 247 247 245 244 243 243 245
202 203 205 207 209 210 211 212 213 214 216 217 216 216 217 219 219 219 219 219 219 220 222 224 225 226 227 228 227 226 227 228 229 231 234 235 234 235 236 238 239 240 240 239 237 235 234 233 234 234 235 235 234 234 233 231 230 230 230 230 231 232 232 232 232 232 232 233 234 236 237 238 241 243 245 247 248 248 249 249 249 248 246 245 244 245
200 201 203 206 208 209 210 211 212 213 215 216 216 216 216 217 218 218 218 218 219 219 220 222 223 224 224 225 224 223 225 227 227 229 232 235 235 235 236 237 238 238 239 238 236 234 232 231 231 232 234 236 235 234 234 233 232 232 231 231 231 232 233 233 233 233 233 234 235 236 237 239 240 241 242 243 244 246 247 248 249 249 248 247 246 246
199 200 202 205 207 208 209 211 211 212 214 215 216 216 216 217 218 217 218 217 218 219 220 220 221 222 222 222 222 221 222 225 225 226 229 233 234 235 235 236 237 237 237 237 236 235 232 231 230 230 231 234 236 236 235 234 233 233 233 233 233 232 232 233 233 233 233 234 235 236 237 238 239 239 238 238 239 241 243 245 246 247 248 248 247 247
197 199 201 203 206 207 209 210 210 211 213 214 215 216 216 216 217 218 218 218 217 218 219 219 219 221 220 220 219 219 220 222 223 223 226 229 232 233 234 235 235 235 235 235 235 235 234 233 231 230 229 230 233 235 235 235 233 232 232 232 233 234 234 234 233 233 232 233 233 234 235 237 237 237 237 237 238 239 240 241 243 244 246 246 247 247
196 198 200 202 204 206 207 209 209 210 211 212 214 214 213 215 218 219 218 218 218 218 218 217 217 218 219 218 218 217 217 220 220 221 223 226 229 230 231 231 232 231 232 233 234 234 234 234 233 231 229 229 229 231 232 234 234 233 232 231 231 232 233 234 234 234 233 233 232 232 233 234 235 236 236 237 238 239 240 240 241 242 243 244 245 246
196 197 199 202 204 205 205 207 208 209 210 211 211 211 211 212 217 220 220 219 219 218 218 217 216 216 217 218 217 215 216 218 219 218 220 223 226 228 229 229 229 228 228 230 231 232 232 234 233 231 230 229 229 229 230 232 233 234 234 233 233 232 233 233 233 233 234 233 233 232 232 233 234 235 236 237 238 239 240 240 241 241 242 243 244 246
195 196 198 201 203 204 204 206 206 207 208 209 209 209 210 210 213 218 222 222 221 220 218 217 216 215 216 217 217 215 213 215 217 217 218 221 223 226 228 228 228 228 227 227 229 230 230 232 232 231 230 229 229 229 229 231 233 234 235 235 234 234 234 234 234 233 233 234 234 234 234 234 235 236 237 237 238 239 240 241 242 243 244 245 246 247
195 196 198 200 202 203 203 204 206 206 206 207 205 205 207 207 207 211 217 221 223 222 219 218 217 215 215 217 218 216 213 213 215 216 217 219 222 224 226 228 229 229 227 226 227 228 229 229 230 231 230 230 229 229 229 230 232 235 236 236 236 235 235 234 235 235 234 234 234 235 235 236 236 237 238 239 240 241 242 243 243 244 245 246 247 248
195 196 197 199 201 202 202 203 205 204 205 205 203 201 203 205 203 201 203 210 219 223 221 219 217 216 215 217 219 218 215 213 215 216 215 217 221 223 225 227 229 229 228 226 224 225 227 228 230 231 231 231 230 229 229 230 231 232 235 237 238 238 237 236 235 235 235 235 235 235 236 236 237 238 239 240 241 242 243 243 244 245 246 247 247 249
195 196 197 199 200 200 201 202 203 203 204 204 201 199 199 200 200 198 194 197 209 220 222 221 219 217 215 216 218 220 218 215 215 216 216 217 219 222 224 226 227 226 227 226 224 223 224 227 229 231 232 232 231 229 229 229 230 231 232 235 237 239 239 238 237 236 236 235 235 236 236 237 238 239 240 240 241 242 243 244 244 245 247 248 249 250
195 196 196 198 200 200 200 201 202 202 202 203 201 197 194 193 194 196 194 192 199 212 219 219 219 219 217 217 218 219 219 218 217 217 217 217 219 221 223 225 225 225 226 227 225 223 223 225 227 231 233 233 231 230 228 229 230 230 230 232 235 237 239 240 240 239 238 237 237 237 237 237 238 239 240 240 241 242 243 244 245 246 247 248 249 250
194 196 196 198 200 200 199 201 202 201 201 202 202 198 193 191 193 198 199 195 196 205 214 216 216 216 218 219 219 220 219 218 218 218 218 218 219 221 223 224 225 226 227 226 225 224 223 224 225 228 231 233 232 230 228 228 229 229 229 230 231 233 236 238 239 240 239 238 238 237 237 238 239 239 240 241 242 243 243 244 245 246 247 248 249 249
194 196 196 198 200 200 199 200 201 201 201 201 202 200 196 192 192 197 201 201 200 203 210 214 213 213 214 218 220 221 220 219 218 217 218 219 219 221 223 223 225 226 226 226 225 224 223 223 224 225 228 231 232 231 230 228 228 228 229 229 229 230 232 234 236 238 239 240 239 239 238 238 239 239 240 242 242 243 244 244 245 246 246 247 248 249
Height
10911 10915 10921 10920 10917 10918 10921 10925 10926 10927 10930 10933 10936 10940 10944 10946 10948 10949 10952 10955 10957 10959 10962 10964 10965 10965 10964 10965 10968 10971 10974 10975 10976 10976 10976 10978 10979 10979 10979 10978 10979 10979 10979 10979 10978 10978 10978 10978 10978 10978 10978 10979 10980 10981 10981 10982 10984 10985 10986 10986 10987 10989 10990 10991 10992 10992 10993 10993 10994 10995 10996 10997 10998 10998 10999 10999 10999 11000 11000 11000 11000 11000 11000 11000 11000 11000
10908 10915 10914 10907 10907 10912 10918 10922 10923 10924 10927 10931 10933 10936 10940 10942 10944 10946 10949 10952 10954 10956 10959 10961 10963 10963 10962 10962 10964 10968 10972 10974 10975 10975 10975 10976 10977 10978 10978 10978 10979 10978 10978 10979 10978 10978 10978 10978 10978 10978 10979 10979 10980 10981 10981 10982 10984 10986 10986 10987 10988 10989 10991 10992 10993 10993 10994 10994 10995 10996 10997 10998 10999 11000 11000 11000 11000 11001 11001 11001 11001 11001 11002 11002 11002 11002
10907 10909 10898 10895 10902 10908 10913 10917 10920 10920 10923 10927 10929 10932 10935 10936 10939 10943 10945 10948 10951 10952 10955 10958 10961 10961 10960 10961 10961 10964 10969 10972 10972 10973 10974 10974 10975 10976 10977 10978 10978 10978 10978 10978 10978 10978 10978 10978 10978 10978 10979 10979 10980 10981 10981 10981 10983 10985 10987 10987 10988 10989 10991 10992 10993 10994 10994 10995 10995 10996 10997 10998 10999 11000 11001 11001 11001 11001 11001 11002 11002 11002 11003 11003 11003 11003
10899 10891 10881 10890 10900 10902 10907 10911 10913 10915 10919 10924 10925 10928 10929 10930 10934 10937 10939 10943 10946 10947 10951 10955 10958 10960 10960 10961 10959 10959 10965 10969 10970 10971 10972 10973 10973 10974 10976 10976 10978 10978 10977 10977 10977 10978 10978 10978 10978 10978 10979 10980 10980 10981 10982 10982 10982 10984 10987 10988 10988 10989 10991 10992 10993 10994 10995 10995 10996 10996 10997 10998 10999 11001 11001 11002 11001 11002 11002 11002 11003 11003 11004 11004 11004 11004
10886 10874 10876 10891 10894 10895 10901 10905 10909 10912 10916 10919 10921 10922 10921 10923 10926 10929 10933 10939 10942 10944 10948 10952 10956 10959 10960 10960 10957 10955 10961 10966 10967 10968 10969 10971 10972 10972 10974 10975 10976 10977 10977 10977 10977 10977 10977 10977 10978 10978 10979 10980 10981 10981 10982 10983 10983 10984 10986 10988 10989 10989 10990 10991 10992 10994 10995 10996 10996 10997 10997 10998 10999 11001 11001 11002 11002 11002 11003 11003 11004 11004 11005 11005 11005 11005
10873 10866 10876 10887 10886 10891 10897 10901 10905 10908 10910 10914 10917 10914 10912 10915 10918 10923 10931 10936 10938 10941 10944 10947 10952 10956 10957 10957 10954 10953 10956 10962 10965 10965 10966 10969 10970 10970 10972 10973 10974 10975 10976 10977 10976 10977 10977 10977 10977 10978 10979 10980 10981 10981 10982 10983 10983 10983 10985 10987 10989 10989 10990 10991 10992 10993 10994 10995 10996 10996 10997 10998 10999 11000 11001 11002 11003 11003 11004 11004 11004 11005 11005 11006 11006 11007
10863 10862 10872 10880 10882 10887 10891 10896 10900 10901 10905 10910 10909 10903 10902 10909 10913 10919 10928 10932 10934 10936 10937 10943 10949 10952 10955 10955 10953 10952 10953 10958 10962 10963 10963 10966 10968 10969 10971 10971 10973 10974 10975 10976 10976 10976 10976 10976 10977 10977 10979 10979 10980 10981 10982 10982 10983 10983 10983 10985 10988 10989 10990 10991 10992 10993 10994 10995 10996 10996 10997 10998 10999 11000 11001 11002 11003 11004 11004 11004 11005 11005 11006 11007 11007 11007
10857 10856 10868 10874 10876 10881 10886 10891 10891 10892 10898 10898 10893 10892 10898 10905 10908 10913 10922 10928 10930 10929 10932 10941 10946 10948 10953 10953 10951 10951 10951 10954 10958 10960 10960 10962 10965 10968 10970 10970 10971 10972 10973 10974 10975 10975 10975 10975 10976 10977 10978 10979 10980 10980 10981 10982 10982 10982 10983 10984 10986 10988 10990 10991 10992 10993 10994 10994 10995 10996 10997 10998 10999 11000 11001 11002 11003 11004 11004 11005 11005 11006 11006 11007 11008 11008
10844 10849 10860 10862 10865 10874 10880 10879 10877 10883 10890 10884 10881 10889 10896 10899 10901 10907 10916 10923 10924 10925 10932 10939 10941 10945 10950 10950 10949 10951 10951 10952 10953 10954 10956 10959 10963 10967 10968 10968 10969 10970 10971 10972 10973 10974 10974 10974 10975 10976 10977 10979 10979 10980 10981 10982 10982 10983 10983 10984 10985 10987 10989 10990 10991 10992 10993 10994 10995 10996 10997 10998 10999 11000 11001 11002 11003 11004 11005 11005 11006 11006 11007 11007 11008 11008
10832 10842 10847 10848 10858 10867 10868 10865 10867 10879 10881 10872 10875 10886 10889 10892 10896 10902 10913 10918 10918 10925 10932 10935 10937 10943 10946 10946 10948 10951 10951 10947 10944 10946 10951 10957 10961 10965 10966 10967 10967 10968 10968 10969 10971 10972 10972 10972 10973 10975 10976 10978 10979 10979 10979 10980 10981 10982 10982 10983 10984 10986 10987 10989 10991 10992 10993 10994 10995 10996 10997 10997 10998 10999 11001 11002 11003 11004 11005 11005 11006 11006 11007 11007 11008 11009
10826 10831 10833 10841 10852 10856 10856 10856 10862 10872 10868 10862 10870 10880 10883 10888 10891 10898 10909 10911 10916 10928 10932 10931 10934 10938 10942 10945 10947 10948 10945 10941 10939 10941 10946 10954 10960 10963 10964 10965 10965 10965 10966 10967 10968 10969 10970 10971 10971 10973 10974 10976 10977 10978 10978 10978 10979 10981 10982 10983 10983 10984 10986 10988 10990 10991 10992 10993 10995 10996 10996 10997 10998 10999 11000 11002 11003 11004 11005 11005 11006 11006 11007 11007 11008 11009
10816 10820 10826 10837 10843 10844 10847 10849 10856 10863 10860 10860 10868 10875 10878 10882 10885 10893 10904 10908 10917 10930 10929 10926 10931 10935 10940 10943 10943 10943 10939 10938 10938 10938 10941 10949 10957 10961 10963 10963 10963 10963 10964 10964 10965 10966 10968 10969 10970 10971 10973 10974 10976 10976 10977 10977 10978 10979 10981 10982 10983 10983 10985 10986 10988 10990 10991 10992 10994 10995 10996 10996 10997 10999 11000 11001 11002 11003 11005 11005 11006 11006 11007 11007 11008 11009
10806 10812 10820 10827 10830 10835 10839 10842 10850 10856 10857 10860 10865 10869 10874 10878 10882 10892 10901 10907 10918 10925 10921 10922 10928 10933 10938 10938 10938 10938 10935 10934 10936 10937 10939 10944 10952 10959 10961 10961 10961 10961 10961 10962 10963 10964 10965 10967 10968 10969 10970 10972 10974 10975 10976 10976 10976 10977 10979 10981 10982 10983 10983 10985 10986 10988 10990 10991 10993 10994 10995 10996 10997 10998 10999 11000 11002 11003 11004 11005 11006 11006 11007 11007 11008 11008
10796 10800 10808 10818 10824 10829 10835 10839 10846 10853 10855 10858 10861 10866 10871 10875 10881 10891 10899 10905 10913 10917 10914 10915 10922 10930 10934 10931 10931 10932 10928 10930 10935 10937 10939 10941 10946 10954 10958 10959 10960 10959 10959 10959 10960 10961 10962 10964 10965 10967 10968 10970 10971 10972 10973 10974 10975 10975 10976 10978 10980 10982 10982 10983 10984 10987 10988 10990 10992 10993 10994 10995 10997 10998 10999 11000 11001 11002 11003 11004 11005 11006 11007 11007 11007 11008
10788 10792 10804 10818 10823 10826 10831 10836 10842 10846 10847 10850 10854 10858 10864 10871 10879 10886 10889 10894 10902 10905 10903 10907 10919 10928 10928 10922 10921 10923 10924 10930 10934 10936 10937 10938 10942 10948 10953 10956 10956 10956 10957 10956 10957 10957 10958 10960 10962 10964 10965 10967 10969 10970 10971 10972 10973 10974 10974 10976 10978 10980 10980 10981 10983 10985 10987 10988 10990 10991 10992 10994 10995 10997 10998 10999 11000 11001 11002 11003 11005 11006 11006 11007 11007 11008
10781 10790 10801 10809 10812 10816 10825 10832 10833 10834 10840 10846 10847 10851 10862 10871 10873 10875 10877 10884 10891 10894 10896 10906 10917 10923 10920 10913 10913 10919 10926 10930 10932 10934 10936 10937 10938 10942 10947 10950 10951 10952 10953 10954 10954 10954 10955 10957 10959 10961 10962 10964 10966 10968 10969 10969 10971 10972 10973 10974 10976 10978 10979 10980 10981 10983 10985 10987 10988 10989 10991 10992 10994 10995 10996 10998 10999 11000 11001 11002 11004 11005 11005 11006 11007 11007
10774 10785 10788 10791 10799 10808 10817 10821 10820 10826 10836 10838 10839 10852 10864 10861 10857 10862 10869 10876 10884 10890 10897 10905 10912 10917 10915 10910 10910 10918 10925 10927 10929 10931 10932 10934 10935 10938 10941 10944 10946 10948 10949 10950 10950 10951 10952 10953 10955 10957 10959 10961 10963 10965 10966 10967 10968 10970 10971 10973 10974 10976 10977 10977 10979 10981 10982 10984 10985 10987 10989 10990 10992 10993 10995 10996 10997 10998 11000 11001 11002 11003 11004 11005 11006 11007
10768 10777 10775 10781 10797 10803 10807 10808 10807 10815 10822 10823 10833 10848 10847 10839 10844 10857 10864 10870 10880 10889 10895 10899 10905 10912 10912 10908 10908 10915 10921 10924 10926 10927 10928 10930 10932 10933 10935 10938 10941 10943 10944 10946 10947 10948 10949 10950 10951 10953 10956 10958 10960 10962 10963 10964 10965 10967 10968 10970 10972 10973 10974 10974 10976 10978 10979 10981 10983 10984 10986 10988 10990 10991 10993 10994 10995 10996 10998 10999 11001 11002 11003 11004 11005 11005
10761 10769 10764 10772 10788 10791 10792 10794 10795 10803 10811 10818 10831 10834 10828 10831 10845 10855 10860 10867 10878 10886 10889 10891 10898 10907 10909 10904 10903 10909 10916 10919 10921 10923 10924 10927 10929 10928 10929 10933 10936 10938 10940 10942 10943 10944 10945 10946 10947 10949 10952 10955 10956 10958 10960 10961 10962 10963 10965 10967 10968 10970 10972 10973 10975 10976 10977 10978 10980 10982 10983 10986 10988 10989 10990 10991 10992 10994 10995 10997 10998 11000 11002 11003 11003 11004
10750 10759 10754 10760 10773 10776 10776 10780 10789 10802 10812 10819 10823 10822 10823 10833 10842 10846 10853 10861 10868 10875 10880 10883 10890 10901 10904 10897 10895 10902 10910 10912 10915 10918 10920 10923 10924 10924 10925 10928 10931 10933 10935 10937 10938 10940 10941 10942 10944 10946 10948 10951 10952 10954 10956 10958 10959 10960 10962 10964 10965 10968 10970 10971 10972 10973 10974 10976 10977 10979 10981 10983 10985 10987 10988 10989 10990 10992 10993 10994 10996 10998 11000 11001 11001 11002
10738 10748 10745 10747 10760 10764 10762 10773 10791 10802 10807 10813 10818 10820 10825 10834 10839 10842 10848 10854 10860 10868 10873 10876 10884 10894 10895 10886 10885 10895 10903 10906 10910 10913 10915 10918 10920 10919 10920 10922 10925 10928 10930 10932 10934 10935 10936 10938 10940 10942 10944 10947 10948 10950 10951 10953 10955 10957 10959 10960 10963 10965 10966 10967 10968 10969 10971 10973 10976 10977 10979 10981 10983 10985 10986 10987 10988 10990 10991 10992 10994 10996 10997 10998 10999 11000
10725 10737 10736 10736 10748 10754 10757 10772 10787 10789 10792 10801 10809 10813 10819 10827 10831 10833 10843 10852 10858 10865 10870 10873 10881 10886 10882 10876 10879 10889 10898 10903 10906 10908 10910 10913 10914 10914 10913 10915 10919 10923 10925 10928 10930 10931 10932 10934 10937 10939 10941 10943 10943 10944 10947 10950 10952 10953 10955 10957 10960 10961 10962 10964 10965 10967 10969 10972 10974 10976 10977 10980 10982 10983 10984 10985 10986 10987 10988 10990 10991 10993 10995 10996 10997 10997
10712 10726 10727 10726 10738 10749 10754 10765 10774 10777 10784 10791 10798 10804 10807 10813 10818 10825 10840 10849 10852 10859 10864 10869 10876 10875 10870 10872 10877 10885 10895 10899 10900 10903 10905 10907 10908 10908 10908 10909 10913 10917 10920 10923 10926 10927 10928 10930 10933 10936 10938 10938 10938 10940 10944 10946 10948 10950 10953 10955 10956 10958 10959 10961 10962 10964 10967 10970 10972 10974 10976 10977 10979 10981 10982 10983 10984 10984 10985 10987 10989 10991 10992 10993 10994 10995
10701 10714 10719 10719 10729 10741 10746 10752 10759 10767 10774 10778 10787 10793 10796 10805 10815 10825 10836 10837 10838 10847 10853 10861 10867 10862 10862 10871 10874 10880 10889 10893 10895 10899 10901 10902 10902 10902 10903 10904 10907 10911 10914 10917 10921 10923 10925 10926 10929 10932 10934 10934 10934 10937 10940 10942 10944 10947 10950 10951 10953 10955 10956 10958 10960 10962 10964 10966 10969 10972 10973 10974 10975 10977 10979 10980 10981 10982 10983 10985 10987 10988 10990 10991 10992 10993
10687 10701 10710 10710 10714 10723 10729 10733 10741 10751 10757 10763 10773 10781 10789 10801 10811 10817 10822 10823 10828 10839 10845 10853 10856 10849 10854 10865 10867 10874 10883 10886 10890 10895 10897 10897 10896 10896 10897 10898 10901 10905 10909 10912 10915 10918 10921 10923 10925 10927 10928 10929 10930 10933 10935 10938 10942 10944 10945 10948 10950 10952 10954 10955 10956 10958 10960 10962 10966 10968 10970 10970 10972 10973 10975 10977 10979 10980 10981 10983 10984 10986 10987 10988 10990 10990
10675 10690 10700 10698 10699 10708 10715 10722 10732 10739 10746 10756 10767 10778 10786 10794 10801 10808 10811 10816 10828 10837 10842 10850 10848 10842 10850 10860 10862 10870 10877 10880 10885 10889 10890 10891 10891 10892 10893 10894 10897 10901 10904 10907 10909 10912 10915 10919 10921 10922 10922 10924 10927 10929 10932 10935 10938 10940 10942 10945 10947 10948 10950 10951 10952 10954 10956 10958 10961 10963 10966 10967 10968 10970 10972 10975 10976 10977 10978 10979 10981 10983 10984 10986 10987 10988
10664 10679 10689 10689 10692 10701 10710 10720 10731 10736 10745 10758 10768 10776 10782 10787 10794 10800 10804 10815 10828 10832 10839 10847 10840 10835 10847 10856 10858 10865 10871 10875 10880 10882 10884 10886 10887 10889 10889 10890 10893 10896 10899 10903 10905 10907 10910 10913 10916 10917 10917 10919 10923 10926 10928 10931 10933 10936 10939 10941 10943 10944 10946 10947 10949 10951 10952 10954 10956 10959 10961 10963 10965 10968 10970 10972 10973 10974 10974 10975 10977 10979 10981 10983 10984 10985
10653 10666 10678 10682 10685 10694 10704 10715 10726 10732 10743 10755 10762 10768 10774 10779 10786 10792 10803 10816 10822 10825 10836 10840 10829 10829 10843 10850 10852 10860 10866 10870 10874 10875 10877 10880 10882 10884 10885 10887 10889 10891 10895 10900 10902 10904 10906 10908 10911 10912 10913 10916 10919 10922 10925 10927 10929 10932 10935 10937 10939 10941 10942 10944 10946 10947 10949 10950 10952 10954 10957 10960 10963 10965 10968 10969 10970 10970 10970 10972 10974 10975 10977 10979 10980 10982
10642 10654 10668 10674 10677 10686 10697 10707 10717 10725 10735 10745 10753 10759 10764 10769 10776 10788 10801 10809 10812 10820 10830 10826 10817 10824 10837 10842 10845 10852 10859 10865 10868 10869 10873 10875 10876 10879 10881 10883 10885 10888 10891 10895 10898 10900 10902 10904 10905 10906 10909 10912 10915 10918 10921 10923 10925 10928 10931 10933 10935 10937 10939 10941 10943 10945 10946 10947 10948 10950 10953 10957 10960 10962 10964 10965 10966 10966 10967 10969 10971 10973 10974 10975 10977 10979
10631 10643 10657 10666 10671 10680 10689 10696 10706 10717 10726 10734 10742 10747 10753 10760 10771 10784 10794 10798 10803 10813 10815 10810 10810 10818 10826 10833 10838 10845 10854 10860 10862 10865 10870 10871 10871 10873 10876 10878 10880 10883 10886 10889 10892 10895 10897 10899 10900 10901 10904 10908 10911 10914 10916 10918 10920 10923 10926 10929 10931 10933 10936 10938 10939 10941 10942 10944 10945 10948 10950 10953 10955 10958 10960 10961 10962 10963 10965 10967 10968 10970 10971 10973 10974 10976
10620 10632 10647 10658 10664 10670 10676 10683 10696 10708 10714 10720 10729 10738 10748 10758 10768 10776 10782 10785 10793 10800 10799 10801 10807 10811 10818 10828 10834 10841 10850 10854 10856 10861 10866 10866 10866 10867 10869 10872 10874 10878 10881 10884 10886 10889 10892 10894 10896 10897 10900 10903 10906 10908 10910 10912 10915 10918 10922 10925 10927 10930 10932 10934 10936 10937 10939 10941 10943 10945 10947 10949 10951 10953 10955 10956 10958 10960 10962 10964 10965 10966 10968 10969 10971 10972
10609 10623 10638 10649 10653 10657 10664 10673 10685 10695 10702 10708 10720 10734 10745 10752 10757 10762 10768 10776 10784 10790 10791 10798 10805 10806 10812 10823 10831 10838 10844 10847 10851 10856 10859 10862 10862 10861 10862 10865 10869 10872 10876 10879 10881 10884 10887 10889 10891 10893 10895 10898 10901 10903 10905 10907 10910 10914 10917 10920 10923 10926 10928 10931 10932 10934 10936 10938 10940 10942 10943 10945 10947 10949 10950 10952 10954 10956 10958 10960 10961 10962 10964 10965 10967 10969
10600 10614 10629 10638 10641 10647 10655 10664 10673 10683 10690 10699 10713 10727 10735 10739 10744 10752 10760 10769 10777 10782 10787 10795 10800 10799 10805 10817 10826 10833 10839 10843 10847 10850 10853 10857 10857 10855 10857 10859 10863 10867 10871 10875 10877 10879 10882 10883 10885 10887 10890 10893 10895 10897 10899 10902 10905 10908 10911 10915 10919 10922 10925 10927 10929 10930 10932 10935 10936 10938 10939 10941 10943 10945 10947 10949 10950 10952 10955 10956 10957 10958 10960 10962 10964 10966
10592 10605 10619 10627 10630 10638 10647 10654 10663 10672 10680 10691 10707 10719 10725 10728 10736 10745 10754 10762 10771 10778 10785 10790 10790 10790 10799 10813 10822 10830 10835 10840 10843 10844 10847 10850 10851 10851 10852 10854 10857 10862 10867 10871 10873 10875 10877 10879 10880 10882 10885 10887 10889 10891 10894 10897 10899 10902 10907 10912 10916 10918 10920 10923 10925 10927 10929 10931 10932 10934 10936 10938 10940 10941 10943 10945 10947 10949 10950 10951 10952 10954 10956 10958 10960 10961
10583 10596 10609 10615 10620 10630 10638 10644 10653 10662 10672 10686 10702 10712 10715 10721 10730 10741 10751 10760 10768 10774 10778 10780 10779 10783 10795 10808 10817 10825 10831 10835 10837 10837 10839 10843 10845 10846 10847 10849 10852 10857 10862 10866 10870 10871 10872 10874 10876 10878 10880 10881 10884 10887 10890 10893 10895 10899 10904 10907 10910 10912 10915 10918 10920 10923 10925 10926 10928 10930 10932 10934 10936 10938 10940 10941 10943 10945 10946 10947 10949 10950 10952 10954 10956 10957
10574 10586 10598 10604 10612 10621 10627 10634 10645 10655 10665 10681 10696 10703 10707 10714 10725 10737 10747 10754 10760 10764 10768 10770 10772 10779 10791 10803 10813 10821 10826 10829 10830 10829 10832 10838 10840 10840 10842 10845 10847 10852 10857 10862 10866 10867 10868 10869 10871 10873 10874 10876 10879 10882 10885 10887 10891 10895 10898 10901 10904 10907 10910 10914 10916 10919 10921 10922 10924 10926 10928 10930 10932 10934 10935 10937 10939 10940 10941 10943 10945 10946 10948 10950 10951 10953
10566 10578 10589 10596 10604 10613 10620 10630 10642 10650 10660 10674 10687 10693 10697 10704 10716 10727 10737 10744 10749 10754 10760 10764 10769 10778 10789 10799 10808 10816 10822 10824 10823 10823 10827 10832 10834 10836 10839 10841 10843 10847 10852 10857 10861 10863 10864 10865 10866 10868 10870 10872 10874 10877 10880 10883 10886 10890 10893 10896 10899 10902 10905 10909 10911 10914 10916 10918 10920 10923 10925 10926 10928 10930 10931 10933 10934 10935 10937 10939 10940 10942 10944 10945 10947 10948
10558 10570 10581 10589 10598 10607 10615 10625 10636 10644 10654 10666 10676 10684 10690 10697 10709 10720 10730 10737 10743 10747 10753 10759 10766 10775 10786 10795 10804 10813 10817 10817 10818 10820 10823 10827 10831 10833 10835 10837 10840 10843 10847 10851 10855 10858 10860 10861 10862 10864 10865 10867 10869 10872 10875 10878 10881 10884 10887 10890 10893 10896 10900 10903 10906 10908 10911 10914 10916 10919 10921 10923 10924 10925 10927 10928 10929 10931 10932 10934 10936 10938 10940 10941 10942 10944
10550 10563 10575 10583 10592 10602 10610 10620 10629 10638 10647 10657 10667 10677 10684 10691 10703 10715 10724 10730 10735 10739 10745 10752 10760 10770 10780 10789 10799 10807 10809 10810 10814 10818 10819 10822 10826 10829 10830 10833 10836 10839 10842 10845 10849 10852 10855 10857 10858 10860 10861 10863 10865 10868 10871 10874 10876 10878 10881 10884 10887 10891 10894 10897 10900 10903 10906 10909 10912 10915 10917 10918 10920 10921 10922 10923 10924 10926 10928 10929 10931 10933 10935 10936 10938 10939
10544 10558 10569 10577 10586 10595 10605 10614 10624 10632 10640 10649 10661 10672 10679 10686 10697 10707 10713 10719 10726 10731 10737 10745 10754 10764 10774 10783 10792 10799 10802 10804 10810 10814 10815 10816 10820 10824 10826 10828 10830 10834 10837 10839 10842 10846 10849 10852 10854 10856 10857 10859 10861 10863 10866 10869 10872 10874 10876 10880 10883 10887 10889 10891 10895 10899 10903 10906 10908 10910 10912 10913 10915 10916 10917 10918 10920 10921 10923 10925 10926 10928 10929 10931 10933 10935
10539 10552 10562 10569 10579 10589 10598 10607 10617 10626 10634 10644 10656 10666 10673 10680 10687 10693 10699 10708 10718 10724 10731 10741 10750 10758 10768 10777 10785 10791 10794 10798 10804 10809 10811 10812 10814 10818 10821 10822 10825 10829 10832 10833 10836 10839 10842 10846 10850 10852 10854 10855 10857 10859 10862 10865 10867 10870 10872 10875 10879 10881 10883 10887 10891 10895 10898 10900 10903 10905 10907 10908 10909 10911 10912 10913 10915 10916 10918 10920 10921 10923 10924 10926 10928 10930
10531 10543 10553 10562 10572 10581 10590 10599 10610 10620 10629 10639 10649 10659 10668 10674 10676 10680 10690 10701 10710 10717 10725 10736 10745 10752 10761 10770 10776 10782 10787 10791 10796 10802 10805 10806 10808 10812 10816 10818 10820 10824 10826 10828 10830 10832 10835 10840 10843 10847 10850 10852 10853 10855 10857 10859 10862 10865 10867 10870 10873 10875 10878 10882 10885 10889 10892 10894 10897 10899 10901 10902 10904 10905 10907 10909 10910 10912 10913 10915 10916 10918 10919 10921 10923 10924
10523 10534 10545 10554 10563 10573 10583 10593 10604 10615 10625 10635 10644 10653 10663 10668 10670 10675 10686 10695 10702 10710 10720 10730 10738 10746 10754 10761 10767 10774 10779 10782 10787 10794 10798 10799 10801 10805 10810 10813 10815 10818 10821 10823 10825 10827 10829 10832 10836 10840 10844 10847 10849 10851 10852 10854 10857 10859 10862 10864 10867 10869 10872 10876 10879 10883 10886 10889 10891 10893 10895 10896 10898 10900 10902 10904 10906 10907 10909 10910 10911 10913 10914 10916 10917 10919
10514 10526 10537 10545 10554 10564 10576 10587 10599 10611 10622 10632 10640 10647 10656 10662 10666 10672 10679 10687 10695 10704 10715 10724 10733 10740 10746 10752 10758 10765 10771 10775 10780 10786 10790 10792 10794 10798 10802 10807 10810 10812 10815 10818 10820 10822 10824 10826 10830 10834 10837 10841 10844 10846 10848 10850 10852 10854 10857 10859 10861 10864 10867 10870 10873 10877 10880 10882 10885 10887 10888 10890 10892 10894 10897 10899 10901 10902 10904 10905 10907 10908 10910 10911 10913 10914
10507 10519 10529 10538 10547 10558 10571 10583 10595 10606 10616 10626 10635 10645 10653 10658 10663 10670 10676 10683 10690 10699 10709 10719 10728 10734 10739 10743 10748 10755 10762 10767 10772 10777 10782 10785 10789 10792 10796 10800 10804 10807 10810 10814 10817 10819 10820 10822 10825 10829 10832 10836 10839 10841 10843 10845 10847 10850 10852 10854 10857 10859 10861 10864 10867 10870 10873 10876 10879 10881 10883 10885 10887 10889 10891 10894 10896 10897 10899 10901 10903 10904 10905 10907 10908 10909
10502 10513 10523 10533 10543 10556 10570 10581 10590 10600 10610 10620 10631 10642 10651 10657 10664 10671 10677 10681 10684 10691 10703 10713 10721 10728 10733 10737 10740 10747 10754 10760 10764 10770 10775 10779 10783 10787 10790 10794 10798 10802 10806 10809 10813 10815 10817 10819 10821 10825 10828 10831 10834 10837 10839 10841 10843 10845 10847 10849 10852 10854 10856 10859 10862 10864 10867 10870 10873 10875 10878 10880 10882 10884 10887 10889 10891 10893 10895 10897 10898 10899 10900 10902 10903 10904
10499 10509 10520 10529 10540 10553 10567 10577 10585 10596 10607 10616 10627 10638 10646 10654 10662 10670 10676 10679 10680 10685 10696 10707 10713 10720 10727 10731 10735 10741 10748 10754 10758 10763 10769 10774 10777 10782 10785 10788 10792 10796 10800 10804 10809 10812 10814 10815 10818 10821 10825 10828 10831 10834 10836 10837 10839 10841 10843 10845 10847 10849 10851 10853 10856 10858 10861 10864 10866 10869 10872 10875 10877 10879 10882 10884 10886 10888 10890 10891 10893 10894 10895 10896 10898 10899
10496 10506 10517 10526 10536 10549 10562 10572 10580 10592 10604 10614 10624 10634 10642 10651 10660 10666 10671 10676 10677 10679 10687 10698 10706 10714 10721 10726 10730 10735 10742 10748 10753 10757 10763 10768 10771 10775 10779 10782 10785 10790 10794 10799 10803 10807 10810 10812 10814 10817 10821 10824 10827 10830 10832 10834 10836 10837 10839 10840 10842 10844 10846 10848 10850 10852 10855 10857 10860 10863 10866 10868 10871 10874 10876 10878 10879 10881 10884 10886 10887 10888 10889 10890 10892 10894
10494 10503 10514 10523 10534 10546 10559 10568 10576 10588 10600 10610 10619 10628 10638 10647 10655 10661 10665 10671 10675 10676 10680 10689 10698 10707 10714 10719 10723 10729 10735 10742 10748 10752 10757 10762 10766 10769 10773 10776 10779 10783 10787 10792 10797 10802 10805 10808 10811 10813 10816 10819 10822 10825 10828 10830 10832 10833 10835 10836 10838 10840 10841 10843 10845 10847 10849 10851 10854 10857 10859 10862 10865 10867 10869 10871 10873 10876 10878 10880 10882 10883 10884 10885 10886 10888
10493 10501 10511 10521 10531 10544 10555 10563 10571 10582 10594 10603 10611 10621 10631 10641 10648 10655 10661 10666 10671 10675 10677 10681 10690 10699 10706 10712 10717 10721 10727 10734 10741 10746 10751 10756 10760 10764 10767 10771 10773 10776 10780 10785 10791 10795 10800 10803 10806 10809 10811 10813 10816 10819 10822 10825 10827 10828 10830 10832 10833 10835 10837 10839 10840 10841 10843 10846 10848 10850 10853 10855 10858 10860 10862 10864 10867 10870 10872 10874 10875 10876 10877 10879 10880 10881
10493 10500 10509 10518 10528 10539 10549 10558 10567 10578 10588 10597 10605 10614 10623 10633 10642 10650 10655 10660 10666 10672 10675 10677 10683 10690 10697 10704 10710 10715 10719 10725 10731 10738 10743 10748 10753 10758 10762 10766 10768 10769 10773 10778 10784 10789 10794 10797 10800 10803 10805 10807 10810 10813 10816 10818 10821 10822 10824 10826 10828 10830 10832 10834 10835 10837 10838 10840 10842 10844 10846 10849 10851 10853 10855 10858 10860 10863 10865 10866 10868 10869 10871 10872 10874 10875